This demonstration page uses our WeatherBlox Daily Observations layout. Learn more.

Left ArrowRight Arrow

39.95238, -75.16362

Hourly Observations for May 20, 2016

Temp ( °F °C ) Dew Point ( °F °C ) Humidity (%) Winds ( mph kmh ) Pressure ( in mb ) Visibility ( mi km ) Precip ( " mm )
12:54 am 00:54 Clear 56 13.3 47 8.3 72 72 Calm 30.18 1022 10 16 0.00 0.00
1:54 am 01:54 Clear 55 12.8 47 8.3 74 74 Calm 30.18 1022 10 16 0.00 0.00
2:54 am 02:54 Mostly Clear 58 14.4 41 5 53 53 NW 5 7 30.18 1022 10 16 0.00 0.00
3:54 am 03:54 Clear 57 13.9 39 3.9 51 51 Calm 30.19 1023 10 16 0.00 0.00
4:54 am 04:54 Clear 56 13.3 38 3.3 51 51 Calm 30.21 1023 10 16 0.00 0.00
5:54 am 05:54 Mostly Sunny 55 12.8 38 3.3 53 53 VRB 3 6 30.22 1024 10 16 0.00 0.00
6:54 am 06:54 Partly Cloudy 56 13.3 39 3.9 53 53 NW 7 11 30.24 1024 10 16 0.00 0.00
7:54 am 07:54 Partly Cloudy 60 15.6 40 4.4 47 47 NW 7 11 30.27 1025 10 16 0.00 0.00
8:54 am 08:54 Partly Cloudy 65 18.3 40 4.4 40 40 NNE 10 17 30.27 1025 10 16 0.00 0.00
9:54 am 09:54 Partly Cloudy 68 20 38 3.3 33 33 N 9 15 30.27 1025 10 16 0.00 0.00
10:54 am 10:54 Partly Cloudy 70 21.1 38 3.3 31 31 NNE 6 9 30.27 1025 10 16 0.00 0.00
11:54 am 11:54 Partly Cloudy 71 21.7 36 2.2 28 28 Calm 30.26 1025 10 16 0.00 0.00
12:54 pm 12:54 Mostly Cloudy 73 22.8 39 3.9 29 29 VRB 6 9 30.25 1024 10 16 0.00 0.00
1:54 pm 13:54 Mostly Cloudy 74 23.3 38 3.3 27 27 S 8 13 30.24 1024 10 16 0.00 0.00
2:54 pm 14:54 Mostly Cloudy 75 23.9 38 3.3 26 26 SSE 5 7 30.22 1024 10 16 0.00 0.00
3:54 pm 15:54 Mostly Cloudy 75 23.9 35 1.7 23 23 SSW 5 7 30.20 1023 10 16 0.00 0.00
4:54 pm 16:54 Mostly Cloudy 75 23.9 38 3.3 26 26 SE 3 6 30.19 1022 10 16 0.00 0.00
5:54 pm 17:54 Cloudy 75 23.9 37 2.8 25 25 Calm 30.19 1022 10 16 0.00 0.00
6:54 pm 18:54 Cloudy 73 22.8 40 4.4 30 30 SSE 9 15 30.18 1022 10 16 0.00 0.00
7:54 pm 19:54 Cloudy 69 20.6 42 5.6 38 38 SSE 9 15 30.18 1022 10 16 0.00 0.00
8:54 pm 20:54 Cloudy 65 18.3 44 6.7 47 47 SSE 6 9 30.20 1023 10 16 0.00 0.00
9:54 pm 21:54 Cloudy 62 16.7 44 6.7 52 52 SSE 3 6 30.22 1023 10 16 0.00 0.00
10:54 pm 22:54 Cloudy 61 16.1 43 6.1 52 52 S 3 6 30.22 1024 10 16 0.00 0.00
11:54 pm 23:54 Cloudy 59 15 44 6.7 58 58 SSE 3 6 30.21 1023 10 16 0.00 0.00

Powered by AerisWeather